JST726 YSSY-YSCB

Flight info

Callsign JST726
Flight time 0h 30m
Altitude 16000
Route WOL H65 CB
Aircraft A321/M-SDE3FGHIRWY/LB1

Departure

Time 2026-04-23 10:09
Airport Sydney Kingsford Smith International Airport (YSSY)

Arrival

Time 2026-04-23 10:40
Airport Canberra Airport (YSCB)
Time Latitude Longitude Altitude Speed Heading
2026-04-23 09:53 -33.93598 151.17992 30 ft 2 kts 280°
2026-04-23 09:58 -33.93599 151.17999 30 ft 9 kts 278°
2026-04-23 09:59 -33.93598 151.18030 29 ft 9 kts 245°
2026-04-23 09:59 -33.93582 151.18052 30 ft 9 kts 195°
2026-04-23 09:59 -33.93571 151.18054 29 ft 8 kts 182°
2026-04-23 09:59 -33.93570 151.18054 29 ft 24 kts 182°
2026-04-23 10:02 -33.93571 151.18054 30 ft 1 kts 182°
2026-04-23 10:03 -33.93605 151.18052 30 ft 10 kts 182°
2026-04-23 10:03 -33.93690 151.18055 30 ft 13 kts 172°
2026-04-23 10:03 -33.93774 151.18039 30 ft 13 kts 234°
2026-04-23 10:03 -33.93803 151.17929 30 ft 15 kts 255°
2026-04-23 10:04 -33.93836 151.17807 30 ft 16 kts 245°
2026-04-23 10:04 -33.93936 151.17788 29 ft 17 kts 167°
2026-04-23 10:04 -33.94055 151.17819 29 ft 18 kts 167°
2026-04-23 10:04 -33.94179 151.17852 30 ft 18 kts 167°
2026-04-23 10:05 -33.94303 151.17886 30 ft 19 kts 168°
2026-04-23 10:05 -33.94418 151.17912 30 ft 12 kts 178°
2026-04-23 10:05 -33.94505 151.17883 30 ft 14 kts 185°
2026-04-23 10:05 -33.94603 151.17900 30 ft 15 kts 168°
2026-04-23 10:06 -33.94705 151.17928 30 ft 16 kts 166°
2026-04-23 10:06 -33.94817 151.17957 30 ft 17 kts 168°
2026-04-23 10:06 -33.94936 151.17988 30 ft 18 kts 167°
2026-04-23 10:06 -33.95043 151.18015 30 ft 13 kts 168°
2026-04-23 10:07 -33.95102 151.18090 30 ft 14 kts 88°
2026-04-23 10:07 -33.95081 151.18211 30 ft 15 kts 77°
2026-04-23 10:07 -33.95057 151.18343 30 ft 16 kts 77°
2026-04-23 10:07 -33.95033 151.18478 30 ft 17 kts 78°
2026-04-23 10:08 -33.95007 151.18622 30 ft 18 kts 78°
2026-04-23 10:08 -33.94980 151.18768 31 ft 13 kts 77°
2026-04-23 10:08 -33.94997 151.18832 27 ft 8 kts 154°
2026-04-23 10:09 -33.95578 151.18987 27 ft 106 kts 167°
2026-04-23 10:09 -33.96492 151.19223 84 ft 156 kts 167°
2026-04-23 10:09 -33.97540 151.19502 775 ft 153 kts 161°
2026-04-23 10:09 -33.98363 151.20256 1447 ft 152 kts 123°
2026-04-23 10:10 -33.98959 151.21337 2066 ft 162 kts 123°
2026-04-23 10:10 -33.99659 151.22511 2454 ft 184 kts 131°
2026-04-23 10:10 -34.00830 151.23300 2736 ft 212 kts 169°
2026-04-23 10:10 -34.02360 151.22895 3113 ft 247 kts 208°
2026-04-23 10:11 -34.03766 151.21584 3942 ft 262 kts 220°
2026-04-23 10:11 -34.05063 151.20000 5019 ft 268 kts 225°
2026-04-23 10:11 -34.06334 151.18324 6001 ft 273 kts 226°
2026-04-23 10:11 -34.07624 151.16619 6784 ft 277 kts 225°
2026-04-23 10:12 -34.08949 151.14906 7522 ft 281 kts 224°
2026-04-23 10:12 -34.10305 151.13200 8295 ft 284 kts 223°
2026-04-23 10:12 -34.11692 151.11485 9047 ft 287 kts 223°
2026-04-23 10:12 -34.13107 151.09760 9831 ft 290 kts 222°
2026-04-23 10:13 -34.14553 151.08007 10408 ft 302 kts 222°
2026-04-23 10:13 -34.16076 151.06169 10747 ft 320 kts 222°
2026-04-23 10:13 -34.17707 151.04200 10934 ft 342 kts 222°
2026-04-23 10:13 -34.19414 151.02133 11428 ft 351 kts 222°
2026-04-23 10:14 -34.21147 151.00027 12073 ft 355 kts 222°
2026-04-23 10:14 -34.22895 150.97898 12769 ft 359 kts 222°
2026-04-23 10:14 -34.24661 150.95745 13463 ft 362 kts 222°
2026-04-23 10:14 -34.26443 150.93568 14158 ft 366 kts 222°
2026-04-23 10:15 -34.28241 150.91369 14785 ft 369 kts 222°
2026-04-23 10:15 -34.30055 150.89157 15416 ft 372 kts 222°
2026-04-23 10:15 -34.31885 150.86928 16070 ft 375 kts 222°
2026-04-23 10:15 -34.33727 150.84687 16362 ft 376 kts 222°
2026-04-23 10:16 -34.35569 150.82448 16444 ft 375 kts 222°
2026-04-23 10:16 -34.37407 150.80209 16450 ft 375 kts 223°
2026-04-23 10:16 -34.39215 150.77997 16450 ft 375 kts 223°
2026-04-23 10:16 -34.41045 150.75752 16450 ft 375 kts 223°
2026-04-23 10:17 -34.42875 150.73507 16454 ft 374 kts 223°
2026-04-23 10:17 -34.44703 150.71267 16456 ft 374 kts 223°
2026-04-23 10:17 -34.46531 150.69023 16452 ft 374 kts 223°
2026-04-23 10:17 -34.48358 150.66777 16453 ft 374 kts 223°
2026-04-23 10:18 -34.50187 150.64534 16456 ft 374 kts 223°
2026-04-23 10:18 -34.52017 150.62288 16461 ft 374 kts 223°
2026-04-23 10:18 -34.53847 150.60043 16462 ft 374 kts 223°
2026-04-23 10:18 -34.55676 150.57797 16461 ft 374 kts 223°
2026-04-23 10:19 -34.57503 150.55549 16465 ft 374 kts 223°
2026-04-23 10:19 -34.59330 150.53301 16462 ft 374 kts 223°
2026-04-23 10:19 -34.61153 150.51056 16462 ft 374 kts 223°
2026-04-23 10:19 -34.62979 150.48803 16463 ft 374 kts 223°
2026-04-23 10:20 -34.64803 150.46550 16467 ft 374 kts 223°
2026-04-23 10:20 -34.66627 150.44297 16466 ft 374 kts 223°
2026-04-23 10:20 -34.68452 150.42043 16465 ft 374 kts 223°
2026-04-23 10:20 -34.70279 150.39790 16468 ft 374 kts 223°
2026-04-23 10:21 -34.72102 150.37538 16468 ft 374 kts 223°
2026-04-23 10:21 -34.73924 150.35279 16466 ft 374 kts 223°
2026-04-23 10:21 -34.75744 150.33018 16466 ft 374 kts 223°
2026-04-23 10:21 -34.77564 150.30759 16466 ft 374 kts 223°
2026-04-23 10:22 -34.79383 150.28501 16498 ft 374 kts 223°
2026-04-23 10:22 -34.81205 150.26241 16500 ft 374 kts 223°
2026-04-23 10:22 -34.83024 150.23985 16496 ft 370 kts 223°
2026-04-23 10:22 -34.84806 150.21774 16265 ft 362 kts 223°
2026-04-23 10:23 -34.86564 150.19589 16014 ft 360 kts 223°
2026-04-23 10:23 -34.88315 150.17412 15768 ft 359 kts 223°
2026-04-23 10:23 -34.90061 150.15240 15527 ft 358 kts 224°
2026-04-23 10:23 -34.91802 150.13071 15284 ft 358 kts 224°
2026-04-23 10:24 -34.93515 150.10935 15047 ft 357 kts 224°
2026-04-23 10:24 -34.95271 150.08745 14801 ft 356 kts 224°
2026-04-23 10:24 -34.97000 150.06585 14558 ft 356 kts 224°
2026-04-23 10:24 -34.98698 150.04458 14344 ft 355 kts 224°
2026-04-23 10:25 -35.00443 150.02274 14078 ft 354 kts 224°
2026-04-23 10:25 -35.02161 150.00124 13810 ft 353 kts 224°
2026-04-23 10:25 -35.03850 149.98009 13553 ft 352 kts 224°
2026-04-23 10:25 -35.05563 149.95866 13297 ft 358 kts 224°
2026-04-23 10:26 -35.07342 149.93618 13041 ft 373 kts 224°
2026-04-23 10:26 -35.09137 149.91311 12778 ft 375 kts 225°
2026-04-23 10:26 -35.10921 149.88994 12534 ft 375 kts 225°
2026-04-23 10:26 -35.12703 149.86674 12284 ft 374 kts 225°
2026-04-23 10:27 -35.14481 149.84364 12035 ft 372 kts 225°
2026-04-23 10:27 -35.16255 149.82063 11788 ft 371 kts 225°
2026-04-23 10:27 -35.18027 149.79770 11467 ft 370 kts 225°
2026-04-23 10:27 -35.19790 149.77491 11015 ft 367 kts 225°
2026-04-23 10:28 -35.21542 149.75226 10843 ft 368 kts 225°
2026-04-23 10:28 -35.23283 149.72977 10291 ft 362 kts 225°
2026-04-23 10:28 -35.25018 149.70735 10132 ft 364 kts 225°
2026-04-23 10:28 -35.26754 149.68484 9935 ft 363 kts 225°
2026-04-23 10:29 -35.28444 149.66286 9568 ft 341 kts 225°
2026-04-23 10:29 -35.29994 149.64260 9304 ft 311 kts 225°
2026-04-23 10:29 -35.31432 149.62381 8803 ft 296 kts 225°
2026-04-23 10:29 -35.32824 149.60562 8133 ft 289 kts 224°
2026-04-23 10:30 -35.34177 149.58801 7870 ft 282 kts 224°
2026-04-23 10:30 -35.35533 149.57042 7812 ft 285 kts 224°
2026-04-23 10:30 -35.36894 149.55278 7724 ft 285 kts 224°
2026-04-23 10:30 -35.38248 149.53519 7610 ft 284 kts 224°
2026-04-23 10:31 -35.39602 149.51756 7493 ft 283 kts 224°
2026-04-23 10:31 -35.40949 149.50000 7382 ft 282 kts 224°
2026-04-23 10:31 -35.42291 149.48245 7263 ft 282 kts 224°
2026-04-23 10:31 -35.43630 149.46493 7146 ft 281 kts 224°
2026-04-23 10:32 -35.44970 149.44744 7027 ft 281 kts 224°
2026-04-23 10:32 -35.45856 149.43588 6954 ft 280 kts 224°
2026-04-23 10:32 -35.47190 149.41850 6824 ft 280 kts 224°
2026-04-23 10:32 -35.48518 149.40114 6716 ft 278 kts 224°
2026-04-23 10:33 -35.49838 149.38387 6601 ft 278 kts 224°
2026-04-23 10:33 -35.51158 149.36663 6491 ft 277 kts 224°
2026-04-23 10:33 -35.52900 149.34384 6337 ft 276 kts 225°
2026-04-23 10:33 -35.53780 149.33225 6262 ft 275 kts 226°
2026-04-23 10:34 -35.55124 149.30600 6108 ft 275 kts 247°
2026-04-23 10:34 -35.55596 149.28350 5848 ft 272 kts 261°
2026-04-23 10:34 -35.55751 149.26814 5783 ft 264 kts 263°
2026-04-23 10:34 -35.55653 149.24623 5718 ft 252 kts 282°
2026-04-23 10:35 -35.55025 149.22681 5691 ft 238 kts 300°
2026-04-23 10:35 -35.54000 149.21149 5629 ft 230 kts 318°
2026-04-23 10:35 -35.52688 149.20070 5537 ft 226 kts 335°
2026-04-23 10:35 -35.51217 149.19538 5437 ft 223 kts 354°
2026-04-23 10:36 -35.49671 149.19440 5387 ft 223 kts
2026-04-23 10:36 -35.48121 149.19440 5176 ft 222 kts
2026-04-23 10:36 -35.46614 149.19445 4912 ft 211 kts
2026-04-23 10:36 -35.45180 149.19445 4615 ft 201 kts
2026-04-23 10:37 -35.43815 149.19445 4344 ft 191 kts
2026-04-23 10:37 -35.42538 149.19444 4095 ft 177 kts
2026-04-23 10:37 -35.41352 149.19444 3879 ft 167 kts
2026-04-23 10:37 -35.40206 149.19445 3629 ft 163 kts
2026-04-23 10:38 -35.39076 149.19445 3404 ft 161 kts
2026-04-23 10:38 -35.37997 149.19444 3179 ft 152 kts
2026-04-23 10:38 -35.36955 149.19444 2997 ft 149 kts
2026-04-23 10:38 -35.35929 149.19441 2781 ft 147 kts
2026-04-23 10:39 -35.34908 149.19439 2579 ft 146 kts
2026-04-23 10:39 -35.33892 149.19442 2394 ft 146 kts
2026-04-23 10:39 -35.32881 149.19444 2157 ft 145 kts
2026-04-23 10:39 -35.31874 149.19446 1991 ft 144 kts
2026-04-23 10:40 -35.30884 149.19439 1883 ft 133 kts
2026-04-23 10:40 -35.30306 149.19429 1880 ft 22 kts
2026-04-23 10:40 -35.30178 149.19386 1880 ft 12 kts 284°
2026-04-23 10:40 -35.30162 149.19322 1880 ft 3 kts 287°
2026-04-23 10:41 -35.30159 149.19289 1880 ft 8 kts 267°
2026-04-23 10:41 -35.30202 149.19240 1880 ft 10 kts 191°
2026-04-23 10:41 -35.30275 149.19237 1880 ft 11 kts 179°
2026-04-23 10:41 -35.30354 149.19237 1880 ft 12 kts 180°
2026-04-23 10:42 -35.30444 149.19238 1880 ft 14 kts 179°
2026-04-23 10:42 -35.30546 149.19239 1880 ft 13 kts 180°
2026-04-23 10:42 -35.30624 149.19233 1878 ft 12 kts 198°
2026-04-23 10:42 -35.30631 149.19156 1880 ft 10 kts 303°
2026-04-23 10:43 -35.30633 149.19128 1880 ft 1 kts 204°
2026-04-23 10:43 -35.30656 149.19122 1880 ft 4 kts 206°
2026-04-23 10:43 -35.30666 149.19112 1878 ft 2 kts 220°
2026-04-23 10:43 -35.30673 149.19104 1880 ft 0 kts 224°
2026-04-23 10:44 -35.30676 149.19100 1880 ft 1 kts 226°
2026-04-23 10:44 -35.30681 149.19092 1878 ft 0 kts 228°